Volver al catálogo

COSMOS 2251 DEB

ActivoLEO
NORAD 34815·DEBRIS·🇷🇺 Russia

Lanzado Jun 16, 1993 desde Plesetsk Cosmodrome

Loading…

Próximos Pases (próximas 24 horas)

TLE

ActualizadoSource: Space-Track

Época: Sep 14, 2026, 04:56 UTC

1 34815U 93036ABE 26257.20618915  .00003516  00000-0  44264-3 0  9994
2 34815  74.0438  59.3268 0054091  57.9859 302.6557 14.81397062927034

Sigue COSMOS 2251 DEB en tiempo real con AllMySat

Download on the App Store